[[{"header":{"parameterUnit":"m.s-1","parameterCategory":1,"la1":30.2991,"la2":30.254,"lo1":-89.0895,"lo2":-89.0444,"dy":0.0017,"dx":0.0017,"nx":28,"ny":28,"refTime":"2025-11-15T03:00:00:Z","depth":0,"parameterNumber":2,"parameterNumberName":"U-component_of_WINDS"},"data":[0,0,0,0,0,0,0,0,0,0,0,0,0,0,0,0,0,0,0,0,0,0,0,0,0,0,0,0,0,0,0,0,0,0,0,0,0,0,0,0,0,0,0,0,0,0,0,0,0,0,0,0,0,0,0,0,0,0,1.4619,1.462,0,1.4685,1.4686,1.4687,1.4673,1.4672,1.467,1.4669,1.4742,1.4745,1.4748,0,0,0,0,0,0,0,0,0,0,0,0,0,1.4486,1.4489,1.4619,1.462,1.4621,1.4685,1.4686,1.4687,1.4673,1.4671,1.467,1.4669,1.4741,1.4745,1.4748,0,0,0,0,0,0,0,0,0,0,0,0,0,1.4547,1.4489,1.4619,1.4621,1.4622,1.4685,1.4686,1.4687,1.4673,1.4671,1.467,1.4668,1.474,1.4744,1.4749,1.4815,0,0,1.4763,1.4765,0,0,0,0,0,0,0,0,1.4544,1.4552,1.462,1.4621,1.4622,1.4669,1.4666,1.473,1.4674,1.4654,1.4669,1.4667,1.4719,1.4726,1.4742,1.4818,1.4821,1.4763,1.4766,1.4768,1.4769,0,0,0,0,0,0,0,1.454,1.4549,1.4645,1.4621,1.4623,1.4621,1.4628,1.4678,1.4697,1.4656,1.4655,1.4663,1.472,1.4738,1.4744,1.4822,1.4763,1.4767,1.477,1.4772,1.4958,1.496,0,0,0,0,0,0,1.4534,1.4546,1.4643,1.4647,1.4578,1.4625,1.4632,1.4656,1.4696,1.47,1.4664,1.4662,1.4731,1.4738,1.4746,1.4827,1.4768,1.4772,1.4775,1.4956,1.4958,1.496,0,0,0,0,0,0,1.4531,1.4542,1.4641,1.4596,1.4609,1.4629,1.4656,1.4658,1.4676,1.4702,1.4706,1.4679,1.473,1.474,1.4798,1.4829,1.4775,1.4779,1.4953,1.4956,1.4959,1.4989,0,0,0,0,0,0,1.4527,1.4542,1.4565,1.4597,1.4611,1.4689,1.4658,1.4661,1.4684,1.4681,1.4717,1.4721,1.4729,1.4791,1.4802,1.4835,1.4782,1.495,1.4955,1.4958,1.4985,1.4992,1.4999,0,0,0,0,0,1.4522,1.4572,1.4567,1.4578,1.4641,1.4691,1.4699,1.4706,1.4686,1.4711,1.4728,1.472,1.4824,1.4797,1.481,1.4844,1.4948,1.4953,1.4958,1.4982,1.4991,1.4999,0,0,0,0,0,0,1.4544,1.4576,1.457,1.4631,1.4658,1.4688,1.472,1.4715,1.475,1.4746,1.4754,1.4763,1.4822,1.4839,1.4808,1.4911,1.4884,1.4891,1.4897,1.4906,1.4913,1.4908,1.4786,0,0,0,0,0,1.4556,1.4592,1.4619,1.467,1.4684,1.47,1.4722,1.4724,1.4753,1.4765,1.4787,1.4817,1.4856,1.4882,1.492,1.4987,1.4996,1.5018,1.5025,1.503,1.5037,1.5075,1.5085,1.4976,1.4976,1.4976,0,0,1.4581,1.4603,1.4625,1.4675,1.4696,1.4735,1.4709,1.4752,1.4782,1.4772,1.4828,1.4845,1.488,1.4943,1.4972,1.4959,1.5069,1.5036,1.5041,1.5044,1.5081,1.5092,1.5101,1.498,1.4979,1.4979,0,0,1.4647,1.4666,1.4711,1.4733,1.4765,1.4776,1.4787,1.4818,1.4829,1.4885,1.4879,1.4916,1.4983,1.5008,1.503,1.5107,1.5101,1.5119,1.5156,1.5193,1.5202,1.5209,1.5238,1.5248,1.5126,1.5126,1.5126,0,1.4674,1.4731,1.4735,1.4778,1.4801,1.4794,1.4841,1.4862,1.4906,1.4923,1.4907,1.4993,1.5016,1.5085,1.5104,1.5122,1.5136,1.5115,1.52,1.5207,1.5215,1.5242,1.5252,1.5128,1.5127,1.5127,1.5127,0,1.4763,1.4803,1.4836,1.4877,1.4904,1.4949,1.4962,1.4989,1.499,1.5003,1.5061,1.5088,1.5131,1.5148,1.515,1.5219,1.521,1.5197,1.517,1.5227,1.5253,1.5263,1.5131,1.513,1.5129,1.5129,0,0,1.4844,1.4887,1.4899,1.4919,1.4954,1.4986,1.5032,1.5073,1.5097,1.5128,1.5167,1.5226,1.5214,1.5239,1.5244,1.5276,1.5337,1.526,1.5261,1.5274,1.5416,1.5426,1.5438,1.5333,1.5335,1.5337,1.5414,0,1.4913,1.4991,1.4997,1.5069,1.5107,1.5101,1.5141,1.5169,1.5182,1.5218,1.5234,1.5275,1.5257,1.5272,1.5304,1.5323,1.5366,1.5317,1.5372,1.5374,1.5363,1.5451,1.5461,1.5532,1.5424,1.5425,1.5427,0,1.5004,1.5036,1.5111,1.5143,1.5159,1.5194,1.5234,1.5267,1.5299,1.5307,1.5335,1.5336,1.5385,1.5356,1.5425,1.5392,1.5415,1.5428,1.5431,1.5437,1.5404,1.546,1.5554,1.5565,1.5442,1.5441,1.544,0,1.5056,1.5119,1.5171,1.5188,1.5226,1.5252,1.5269,1.5299,1.5324,1.5359,1.5376,1.5417,1.5439,1.5472,1.5485,1.5462,1.5554,1.5526,1.5563,1.5563,1.5583,1.5581,1.5683,1.5597,1.5597,1.5597,1.5597,0,1.5132,1.5179,1.5195,1.5228,1.528,1.5288,1.5341,1.5357,1.5384,1.5421,1.542,1.5455,1.5469,1.5508,1.5519,1.5575,1.5585,1.5595,1.5597,1.5595,1.5594,1.561,1.5606,1.56,1.5599,1.5599,1.5598,0,1.5199,1.5212,1.527,1.5301,1.531,1.5347,1.5375,1.5408,1.5421,1.5469,1.5481,1.5503,1.5548,1.5564,1.562,1.5627,1.5692,1.5691,1.5681,1.5682,1.5719,1.5715,1.5835,1.5851,1.5754,1.5755,1.5756,0,1.5247,1.5282,1.5317,1.5341,1.5359,1.5399,1.5424,1.5434,1.5461,1.5501,1.5529,1.5574,1.561,1.5683,1.5706,1.5749,1.5748,1.5787,1.5755,1.5752,1.575,1.5747,1.5752,1.5793,1.5794,1.5795,1.5796,0,1.5331,1.5336,1.5372,1.541,1.544,1.5471,1.5501,1.5522,1.5537,1.5567,1.5613,1.5641,1.5698,1.5743,1.5787,1.5807,1.5805,1.5806,1.5817,1.5815,1.5808,1.5813,1.5698,1.5803,1.5802,1.5802,1.5801,1.5801,1.5391,1.5422,1.5452,1.5492,1.5516,1.5544,1.5577,1.5594,1.5632,1.5677,1.5682,1.5731,1.5765,1.5823,1.5846,1.5886,1.5876,1.5892,1.5896,1.59,1.5903,1.5802,1.5894,1.5894,1.5894,1.5894,1.5894,0,1.5475,1.5494,1.5531,1.5573,1.5605,1.5598,1.5632,1.566,1.5703,1.5733,1.5769,1.5823,1.5867,1.5893,1.5938,1.5965,1.5965,1.5977,1.5975,1.598,1.5909,1.5895,1.5976,1.5976,1.5976,1.5976,1.5976,1.5976,1.5523,1.5576,1.5585,1.5651,1.567,1.5717,1.5737,1.5764,1.5788,1.5848,1.5884,1.59,1.5929,1.5976,1.6017,1.6024,1.6041,1.6054,1.606,1.5993,1.5985,1.5977,1.5964,1.6057,1.6057,1.6127,1.6128,1.6128]},{"header":{"parameterUnit":"m.s-1","parameterCategory":1,"la1":30.2991,"la2":30.254,"lo1":-89.0895,"lo2":-89.0444,"dy":0.0017,"dx":0.0017,"nx":28,"ny":28,"refTime":"2025-11-15T03:00:00:Z","depth":0,"parameterNumber":3,"parameterNumberName":"V-component_of_WINDS"},"data":[0,0,0,0,0,0,0,0,0,0,0,0,0,0,0,0,0,0,0,0,0,0,0,0,0,0,0,0,0,0,0,0,0,0,0,0,0,0,0,0,0,0,0,0,0,0,0,0,0,0,0,0,0,0,0,0,0,0,1.5087,1.5087,0,1.5097,1.5097,1.5097,1.5078,1.5077,1.5077,1.5076,1.5086,1.5087,1.5088,0,0,0,0,0,0,0,0,0,0,0,0,0,1.5048,1.5049,1.5087,1.5087,1.5087,1.5097,1.5097,1.5098,1.5078,1.5077,1.5076,1.5076,1.5086,1.5087,1.5088,0,0,0,0,0,0,0,0,0,0,0,0,0,1.5062,1.5049,1.5087,1.5079,1.5078,1.5097,1.5097,1.5098,1.5078,1.5077,1.5076,1.5075,1.5085,1.5087,1.5088,1.5116,0,0,1.5092,1.5093,0,0,0,0,0,0,0,0,1.5061,1.5064,1.508,1.5079,1.5078,1.5085,1.5087,1.5104,1.5078,1.5078,1.5076,1.5075,1.5086,1.5088,1.5092,1.5116,1.5116,1.5092,1.5093,1.5093,1.5094,0,0,0,0,0,0,0,1.5061,1.5063,1.5091,1.508,1.5079,1.5074,1.5075,1.509,1.5088,1.5078,1.5077,1.5078,1.5086,1.5091,1.5092,1.5117,1.5092,1.5093,1.5094,1.5095,1.5162,1.5163,0,0,0,0,0,0,1.5061,1.5062,1.5091,1.5091,1.5067,1.5075,1.5076,1.5084,1.5087,1.5087,1.5079,1.5077,1.5089,1.509,1.5092,1.5123,1.5093,1.5095,1.5095,1.5161,1.5162,1.5163,0,0,0,0,0,0,1.506,1.5063,1.509,1.5076,1.5079,1.5077,1.5086,1.5085,1.5089,1.5088,1.5087,1.5084,1.5088,1.509,1.5109,1.5124,1.5095,1.5096,1.516,1.5162,1.5163,1.5187,0,0,0,0,0,0,1.5059,1.5063,1.5074,1.5077,1.508,1.5108,1.5087,1.5086,1.5092,1.5089,1.5093,1.5092,1.5087,1.5108,1.5111,1.5125,1.5097,1.5159,1.5161,1.5162,1.5185,1.5189,1.5193,0,0,0,0,0,1.5058,1.5081,1.5075,1.5079,1.5094,1.5109,1.5111,1.5105,1.5093,1.5103,1.5102,1.5092,1.5122,1.511,1.5113,1.5128,1.5158,1.516,1.5162,1.5183,1.5188,1.5193,0,0,0,0,0,0,1.5081,1.5081,1.5075,1.51,1.5104,1.5106,1.5119,1.5111,1.5119,1.5116,1.5108,1.5109,1.513,1.5131,1.5118,1.5154,1.5138,1.5141,1.5152,1.5157,1.5161,1.516,1.5099,0,0,0,0,0,1.5088,1.5101,1.5101,1.5123,1.5125,1.5122,1.5128,1.5123,1.5127,1.5129,1.513,1.5134,1.5144,1.5151,1.516,1.5185,1.5185,1.5197,1.5201,1.5204,1.5206,1.5218,1.5223,1.5171,1.5171,1.5171,0,0,1.5105,1.5107,1.5115,1.5127,1.513,1.5142,1.5124,1.5138,1.5146,1.5131,1.5149,1.5149,1.5154,1.5176,1.5185,1.5177,1.5221,1.5207,1.5209,1.521,1.5221,1.5226,1.5231,1.5172,1.5172,1.5172,0,0,1.5141,1.5145,1.5162,1.5165,1.517,1.5167,1.5171,1.5174,1.5173,1.5191,1.5179,1.5189,1.5207,1.521,1.5214,1.525,1.524,1.5253,1.5273,1.5285,1.5289,1.5293,1.5304,1.5309,1.5256,1.5256,1.5256,0,1.5161,1.518,1.5173,1.5187,1.5192,1.5178,1.5196,1.5199,1.5207,1.521,1.5201,1.5222,1.5224,1.5245,1.5254,1.5258,1.5262,1.5252,1.5289,1.5293,1.5296,1.5307,1.5311,1.5257,1.5257,1.5257,1.5257,0,1.5203,1.5216,1.523,1.5237,1.5243,1.5259,1.5254,1.5261,1.5255,1.5253,1.527,1.5272,1.5281,1.5286,1.528,1.5306,1.5301,1.5291,1.5274,1.5302,1.5313,1.5317,1.5259,1.5259,1.5258,1.5258,0,0,1.5255,1.5257,1.5262,1.5264,1.5267,1.5277,1.5291,1.53,1.5306,1.5311,1.5322,1.5337,1.5327,1.5331,1.5326,1.5336,1.5363,1.5324,1.5324,1.5331,1.539,1.5397,1.5402,1.5357,1.5357,1.5358,1.5389,0,1.529,1.5315,1.5309,1.5334,1.5344,1.5331,1.5343,1.5346,1.5344,1.5353,1.5351,1.5361,1.5348,1.535,1.5359,1.5357,1.5374,1.5355,1.5366,1.5367,1.5365,1.5408,1.5416,1.5445,1.5393,1.5394,1.5395,0,1.5335,1.5341,1.5367,1.5367,1.5371,1.5382,1.5388,1.5397,1.54,1.5397,1.5402,1.5393,1.5407,1.539,1.5408,1.5395,1.5399,1.5399,1.54,1.54,1.5382,1.5408,1.5455,1.5459,1.5401,1.54,1.54,0,1.5368,1.5383,1.54,1.5403,1.5403,1.5411,1.5412,1.5414,1.5418,1.5424,1.5426,1.5434,1.5437,1.5442,1.5436,1.5425,1.5454,1.5438,1.5452,1.5452,1.5459,1.5458,1.5506,1.5463,1.5463,1.5463,1.5463,0,1.5408,1.5424,1.5415,1.5425,1.5443,1.5434,1.5451,1.545,1.5452,1.5461,1.545,1.5459,1.545,1.5458,1.5453,1.5468,1.547,1.5468,1.5466,1.5469,1.5469,1.5471,1.5468,1.5464,1.5464,1.5463,1.5463,0,1.5449,1.5443,1.5461,1.5459,1.5459,1.5472,1.547,1.548,1.5476,1.5488,1.5491,1.5486,1.5494,1.5488,1.5497,1.5494,1.5513,1.5509,1.5512,1.5511,1.5525,1.5524,1.5575,1.5581,1.5535,1.5535,1.5536,0,1.5474,1.5486,1.5485,1.549,1.5492,1.5501,1.5505,1.5497,1.5502,1.5505,1.5513,1.5521,1.5527,1.5541,1.5538,1.5544,1.554,1.5557,1.5541,1.5542,1.5539,1.5538,1.5539,1.5561,1.5561,1.5562,1.5562,0,1.5519,1.5515,1.5522,1.5528,1.5533,1.5538,1.5541,1.5546,1.5537,1.5544,1.5552,1.5556,1.5565,1.5572,1.5577,1.5577,1.5568,1.5567,1.5571,1.5573,1.5574,1.5572,1.552,1.5566,1.5565,1.5565,1.5565,1.5565,1.5552,1.5561,1.5562,1.5569,1.5571,1.5574,1.5582,1.5579,1.5586,1.5592,1.5586,1.5596,1.5597,1.5603,1.5604,1.5611,1.5604,1.5609,1.561,1.5612,1.5613,1.5573,1.5612,1.5612,1.5612,1.5612,1.5612,0,1.5595,1.5594,1.5602,1.5606,1.5612,1.5602,1.5605,1.561,1.5619,1.562,1.5626,1.5635,1.5641,1.5639,1.5644,1.565,1.5646,1.5652,1.5651,1.5651,1.562,1.5616,1.5655,1.5655,1.5655,1.5655,1.5655,1.5655,1.5618,1.5633,1.5629,1.5644,1.5643,1.5652,1.5654,1.5657,1.5658,1.5668,1.5673,1.5671,1.5671,1.5676,1.5681,1.568,1.5683,1.569,1.5687,1.5658,1.5654,1.565,1.5646,1.5691,1.5691,1.5718,1.5718,1.5718]}]]